GW3636 Weather Reports


time (UTC)temp
F
wind
direction
speed
knots
gust
knots
rain 1hr
in
rain 24hr
in
rain mn
in
humidity
%
barometer
mb
20260903084608 0 0.0 0.0 0.00 0.00 0.00 1017.4
20260903083105 0 0.0 0.0 0.00 0.00 0.00 1017.3
20260903081607 0 0.0 0.0 0.00 0.00 0.00 1017.4
20260903080103 0 0.0 0.0 0.00 0.00 0.00 1017.4
20260903074609 0 0.0 0.0 0.00 0.00 0.00 1017.5
20260903073109 75 0.0 0.0 0.00 0.00 0.00 90 1017.4
20260903071557 75 0 0.0 0.0 0.00 0.00 0.00 90 1017.3
20260903070107 75 0 0.0 0.0 0.00 0.00 0.00 89 1017.4
20260903064601 75 0 0.0 0.0 0.00 0.00 0.00 88 1017.4
20260903063104 76 0 0.0 0.0 0.00 0.00 0.00 88 1017.4
20260903061604 76 0 0.0 3.5 0.00 0.00 0.00 88 1017.5
20260903060123 76 205 0.9 2.6 0.00 0.00 0.00 88 1017.5
20260903054606 76 202 0.0 3.5 0.00 0.00 0.00 88 1017.4
20260903053108 76 247 1.7 3.5 0.00 0.00 0.00 88 1017.4
20260903051608 76 198 2.6 3.5 0.00 0.00 0.00 88 1017.4
20260903050108 76 198 0.9 2.6 0.00 0.00 0.00 87 1017.3
20260903044606 77 0 0.0 1.7 0.00 0.00 0.00 86 1017.3
20260903043104 77 198 1.7 2.6 0.00 0.00 0.00 85 1017.2
20260903041602 78 198 0.0 0.9 0.00 0.00 0.00 84 1017.2
20260903040112 78 0 0.0 0.0 0.00 0.00 0.00 83 1017.3
20260903034606 79 0 0.0 0.0 0.00 0.00 0.00 82 1017.3
20260903033104 0 0.0 0.0 0.00 0.00 0.00 1017.5
20260903031606 0 0.0 0.0 0.00 0.00 0.00 1017.4
20260903030106 0 0.0 0.0 0.00 0.00 0.00 1017.5
20260903024605 0 0.0 0.0 0.00 0.00 0.00 1017.6
20260903023107 0 0.0 0.0 0.00 0.00 0.00 1017.6
20260903021608 82 198 2.6 3.5 0.00 0.00 0.00 75 1017.5
20260903020106 83 198 1.7 4.3 0.00 0.00 0.00 74 1017.4
20260903014632 84 194 2.6 3.5 0.00 0.00 0.00 72 1017.4
20260903013122 85 198 2.6 3.5 0.00 0.00 0.00 69 1017.3
20260903011612 86 196 2.6 4.3 0.00 0.00 0.00 68 1017.2
20260903010106 86 186 2.6 4.3 0.00 0.00 0.00 66 1017.0
20260903004606 87 197 3.5 5.2 0.00 0.00 0.00 63 1016.8
20260903003109 88 182 3.5 5.2 0.00 0.00 0.00 60 1016.6
20260903001606 90 193 1.7 7.0 0.00 0.00 0.00 58 1016.7
20260903000109 90 213 4.3 7.8 0.00 0.00 0.00 55 1016.6
20260902234606 91 213 4.3 9.6 0.00 0.00 0.00 54 1016.6
20260902233109 92 212 6.1 9.6 0.00 0.00 0.00 53 1016.7
20260902231607 92 229 6.1 9.6 0.00 0.00 0.00 51 1016.7
20260902230108 93 219 6.1 10.4 0.00 0.00 0.00 50 1016.8
20260902224611 93 250 7.8 11.3 0.00 0.00 0.00 48 1016.8
20260902223117 94 264 7.0 12.2 0.00 0.00 0.00 47 1016.8
20260902221559 94 206 4.3 6.1 0.00 0.00 0.00 45 1016.8
20260902220111 94 244 5.2 9.6 0.00 0.00 0.00 45 1016.9
20260902214613 95 263 6.1 11.3 0.00 0.00 0.00 45 1016.8
20260902213105 95 289 7.0 9.6 0.00 0.00 0.00 45 1016.8
20260902211600 95 207 6.1 11.3 0.00 0.00 0.00 45 1017.0
20260902210106 94 192 1.7 9.6 0.00 0.00 0.00 45 1017.0
20260902204606 94 253 5.2 12.2 0.00 0.00 0.00 45 1017.1
20260902203104 95 225 7.0 13.0 0.00 0.00 0.00 44 1017.3
20260902201605 96 304 4.3 8.7 0.00 0.00 0.00 44 1017.4
20260902200106 95 340 4.3 7.8 0.00 0.00 0.00 44 1017.5
20260902194610 94 240 2.6 6.1 0.00 0.00 0.00 46 1017.8
20260902193105 95 198 2.6 9.6 0.00 0.00 0.00 45 1017.9
20260902191600 95 191 4.3 7.8 0.00 0.00 0.00 46 1017.9
20260902190100 95 347 0.0 7.8 0.00 0.00 0.00 46 1017.9
20260902184607 94 304 9.6 15.6 0.00 0.00 0.00 48 1018.1
20260902183109 94 276 2.6 8.7 0.00 0.00 0.00 48 1018.2
20260902181604 94 194 7.0 11.3 0.00 0.00 0.00 49 1018.5
20260902180104 93 252 2.6 7.8 0.00 0.00 0.00 49 1018.6
20260902174607 92 301 0.9 4.3 0.00 0.00 0.00 51 1018.7
20260902173135 91 291 5.2 10.4 0.00 0.00 0.00 55 1019.0
20260902171621 92 310 0.0 7.8 0.00 0.00 0.00 54 1019.2
20260902170101 91 323 6.1 9.6 0.00 0.00 0.00 56 1019.5
20260902164611 90 300 3.5 9.6 0.00 0.00 0.00 56 1019.6
20260902163102 91 234 3.5 10.4 0.00 0.00 0.00 54 1019.8
20260902161608 91 304 6.1 11.3 0.00 0.00 0.00 57 1019.9
20260902160104 90 295 3.5 11.3 0.00 0.00 0.00 59 1019.9
20260902154604 90 308 3.5 7.0 0.00 0.00 0.00 60 1020.1
20260902153059 89 286 5.2 7.8 0.00 0.00 0.00 61 1020.0
20260902151602 88 257 3.5 10.4 0.00 0.00 0.00 62 1020.0
20260902150106 87 198 6.1 8.7 0.00 0.00 0.00 64 1019.9
20260902144603 86 209 2.6 6.1 0.00 0.00 0.00 68 1020.0
20260902143109 84 190 2.6 6.1 0.00 0.00 0.00 71 1019.9
20260902141611 83 204 3.5 8.7 0.00 0.00 0.00 74 1019.9
20260902140106 81 167 4.3 7.8 0.00 0.00 0.00 76 1019.8
20260902134608 80 195 4.3 8.7 0.00 0.00 0.00 79 1019.8
20260902133110 78 175 3.5 7.0 0.00 0.00 0.00 82 1019.7
20260902131615 76 157 2.6 5.2 0.00 0.00 0.00 86 1019.6
20260902130106 74 206 1.7 5.2 0.00 0.00 0.00 90 1019.5
20260902124612 73 173 1.7 4.3 0.00 0.00 0.00 92 1019.6
20260902123146 71 203 1.7 3.5 0.00 0.00 0.00 93 1019.6
20260902121557 70 202 1.7 2.6 0.00 0.00 0.00 94 1019.6
20260902120106 70 210 0.9 2.6 0.00 0.00 0.00 94 1019.6
20260902114600 69 192 1.7 3.5 0.00 0.00 0.00 94 1019.4
20260902113058 69 191 2.6 3.5 0.00 0.00 0.00 93 1019.3
20260902111605 69 198 2.6 4.3 0.00 0.00 0.00 93 1019.1
20260902110111 70 200 3.5 4.3 0.00 0.00 0.00 93 1019.0
20260902104605 70 0 0.0 0.0 0.00 0.00 0.00 93 1019.1
20260902103101 70 0 0.0 0.0 0.00 0.00 0.00 93 1019.0
20260902101601 70 0 0.0 0.0 0.00 0.00 0.00 93 1019.0
20260902100101 70 0 0.0 0.0 0.00 0.00 0.00 93 1018.9
20260902094600 71 0 0.0 0.0 0.00 0.00 0.00 93 1018.8
20260902093059 71 0 0.0 0.0 0.00 0.00 0.00 93 1018.7
20260902091616 71 0 0.0 0.0 0.00 0.00 0.00 93 1018.7
20260902090059 71 0 0.0 0.0 0.00 0.00 0.00 93 1018.8